Time,TemperatureF,DewpointF,PressureIn,WindDirection,WindDirectionDegrees,WindSpeedMPH,WindSpeedGustMPH,Humidity,HourlyPrecipIn,Conditions,Clouds,dailyrainin,SoftwareType,DateUTC
2013-08-01 00:01:00,67.8,64.8,29.99,SW,233,10.0,10.0,90,0.00,,,0.00,Wunderground v.1.15,2013-08-01 04:01:00,
2013-08-01 00:02:00,67.8,64.8,29.99,SW,232,10.0,10.0,90,0.00,,,0.00,Wunderground v.1.15,2013-08-01 04:02:00,
2013-08-01 00:07:00,67.8,65.1,29.99,WSW,238,10.0,11.0,91,0.00,,,0.00,Wunderground v.1.15,2013-08-01 04:07:00,
2013-08-01 00:12:00,67.8,65.1,29.99,SW,236,10.0,10.0,91,0.00,,,0.00,Wunderground v.1.15,2013-08-01 04:12:00,
2013-08-01 00:17:00,67.8,65.1,29.99,WSW,239,10.0,10.0,91,0.00,,,0.00,Wunderground v.1.15,2013-08-01 04:17:00,
2013-08-01 00:22:00,67.9,65.2,29.99,SW,236,10.0,11.0,91,0.00,,,0.00,Wunderground v.1.15,2013-08-01 04:22:00,
2013-08-01 00:27:00,67.8,65.1,29.99,WSW,240,9.0,11.0,91,0.00,,,0.00,Wunderground v.1.15,2013-08-01 04:27:00,
2013-08-01 00:32:00,67.7,65.3,29.99,SW,236,10.0,11.0,92,0.00,,,0.00,Wunderground v.1.15,2013-08-01 04:32:00,
2013-08-01 00:37:00,67.6,65.2,29.99,WSW,240,10.0,11.0,92,0.00,,,0.00,Wunderground v.1.15,2013-08-01 04:37:00,
2013-08-01 00:42:00,67.5,65.1,29.99,WSW,239,10.0,11.0,92,0.00,,,0.00,Wunderground v.1.15,2013-08-01 04:42:00,
2013-08-01 00:47:00,67.6,65.2,29.99,WSW,242,11.0,11.0,92,0.00,,,0.00,Wunderground v.1.15,2013-08-01 04:47:00,
2013-08-01 00:52:00,67.5,65.4,29.99,WSW,243,10.0,11.0,93,0.00,,,0.00,Wunderground v.1.15,2013-08-01 04:52:00,
2013-08-01 00:57:00,67.4,65.3,29.99,WSW,244,8.0,11.0,93,0.00,,,0.00,Wunderground v.1.15,2013-08-01 04:57:00,
2013-08-01 01:02:00,67.3,65.2,29.99,WSW,244,9.0,9.0,93,0.00,,,0.00,Wunderground v.1.15,2013-08-01 05:02:00,
2013-08-01 01:07:00,67.3,65.5,29.99,WSW,249,8.0,9.0,94,0.00,,,0.00,Wunderground v.1.15,2013-08-01 05:07:00,
2013-08-01 01:12:00,67.3,65.5,29.99,WSW,246,9.0,9.0,94,0.00,,,0.00,Wunderground v.1.15,2013-08-01 05:12:00,
2013-08-01 01:17:00,67.2,65.4,29.98,WSW,249,8.0,9.0,94,0.00,,,0.00,Wunderground v.1.15,2013-08-01 05:17:00,
2013-08-01 01:22:00,67.2,65.4,29.98,WSW,245,8.0,8.0,94,0.00,,,0.00,Wunderground v.1.15,2013-08-01 05:22:00,
2013-08-01 01:27:00,67.3,65.8,29.98,WSW,245,8.0,8.0,95,0.00,,,0.00,Wunderground v.1.15,2013-08-01 05:27:00,
2013-08-01 01:32:00,67.2,65.7,29.98,WSW,244,8.0,8.0,95,0.00,,,0.00,Wunderground v.1.15,2013-08-01 05:32:00,
2013-08-01 01:37:00,67.4,65.9,29.98,WSW,258,7.0,8.0,95,0.00,,,0.00,Wunderground v.1.15,2013-08-01 05:37:00,
2013-08-01 01:42:00,67.6,66.1,29.98,West,259,7.0,8.0,95,0.00,,,0.00,Wunderground v.1.15,2013-08-01 05:42:00,
2013-08-01 01:47:00,67.6,66.1,29.98,West,262,6.0,8.0,95,0.00,,,0.00,Wunderground v.1.15,2013-08-01 05:47:00,
2013-08-01 01:52:00,67.6,66.4,29.98,WSW,250,6.0,7.0,96,0.00,,,0.00,Wunderground v.1.15,2013-08-01 05:52:00,
2013-08-01 01:58:00,67.4,66.2,29.98,WSW,240,7.0,7.0,96,0.00,,,0.00,Wunderground v.1.15,2013-08-01 05:58:00,
2013-08-01 02:03:00,67.2,66.0,29.98,WSW,242,7.0,8.0,96,0.00,,,0.00,Wunderground v.1.15,2013-08-01 06:03:00,
2013-08-01 02:07:00,67.3,66.1,29.98,WSW,255,7.0,8.0,96,0.00,,,0.00,Wunderground v.1.15,2013-08-01 06:07:00,
2013-08-01 02:12:00,67.4,66.2,29.98,WSW,254,8.0,8.0,96,0.00,,,0.00,Wunderground v.1.15,2013-08-01 06:12:00,
2013-08-01 02:17:00,67.4,66.2,29.97,WSW,255,8.0,9.0,96,0.00,,,0.00,Wunderground v.1.15,2013-08-01 06:17:00,
2013-08-01 02:22:00,67.4,65.9,29.97,West,260,9.0,9.0,95,0.00,,,0.00,Wunderground v.1.15,2013-08-01 06:22:00,
2013-08-01 02:28:00,67.4,66.2,29.97,WSW,258,8.0,9.0,96,0.00,,,0.00,Wunderground v.1.15,2013-08-01 06:28:00,
2013-08-01 02:32:00,67.4,66.2,29.97,West,262,8.0,9.0,96,0.00,,,0.00,Wunderground v.1.15,2013-08-01 06:32:00,
2013-08-01 02:37:00,67.3,65.8,29.97,West,260,7.0,9.0,95,0.00,,,0.00,Wunderground v.1.15,2013-08-01 06:37:00,
2013-08-01 02:42:00,67.3,66.1,29.97,WSW,258,7.0,8.0,96,0.00,,,0.00,Wunderground v.1.15,2013-08-01 06:42:00,
2013-08-01 02:47:00,67.2,66.0,29.97,West,264,7.0,8.0,96,0.00,,,0.00,Wunderground v.1.15,2013-08-01 06:47:00,
2013-08-01 02:52:00,67.1,65.9,29.97,West,271,7.0,7.0,96,0.00,,,0.00,Wunderground v.1.15,2013-08-01 06:52:00,
2013-08-01 02:57:00,67.1,65.9,29.97,West,270,6.0,7.0,96,0.00,,,0.00,Wunderground v.1.15,2013-08-01 06:57:00,
2013-08-01 03:03:00,67.1,65.9,29.97,West,278,6.0,6.0,96,0.00,,,0.00,Wunderground v.1.15,2013-08-01 07:03:00,
2013-08-01 03:08:00,67.1,65.9,29.97,West,280,6.0,6.0,96,0.00,,,0.00,Wunderground v.1.15,2013-08-01 07:08:00,
2013-08-01 03:13:00,67.1,65.9,29.96,West,272,6.0,6.0,96,0.00,,,0.00,Wunderground v.1.15,2013-08-01 07:13:00,
2013-08-01 03:17:00,67.0,65.8,29.96,West,268,5.0,6.0,96,0.00,,,0.00,Wunderground v.1.15,2013-08-01 07:17:00,
2013-08-01 03:22:00,67.0,65.5,29.96,West,278,5.0,6.0,95,0.00,,,0.00,Wunderground v.1.15,2013-08-01 07:22:00,
2013-08-01 03:28:00,67.0,65.5,29.96,West,276,6.0,6.0,95,0.00,,,0.00,Wunderground v.1.15,2013-08-01 07:28:00,
2013-08-01 03:33:00,67.0,65.5,29.95,West,276,5.0,6.0,95,0.00,,,0.00,Wunderground v.1.15,2013-08-01 07:33:00,
2013-08-01 03:38:00,66.9,65.4,29.95,West,278,4.0,6.0,95,0.00,,,0.00,Wunderground v.1.15,2013-08-01 07:38:00,
2013-08-01 03:43:00,66.9,65.4,29.95,West,280,4.0,5.0,95,0.00,,,0.00,Wunderground v.1.15,2013-08-01 07:43:00,
2013-08-01 03:48:00,66.8,65.3,29.95,WNW,297,4.0,5.0,95,0.00,,,0.00,Wunderground v.1.15,2013-08-01 07:48:00,
2013-08-01 03:53:00,66.6,65.4,29.95,NW,305,4.0,4.0,96,0.00,,,0.00,Wunderground v.1.15,2013-08-01 07:53:00,
2013-08-01 03:58:00,66.2,65.3,29.95,NNW,328,2.0,4.0,97,0.00,,,0.00,Wunderground v.1.15,2013-08-01 07:58:00,
2013-08-01 04:03:00,65.9,65.0,29.95,NNW,329,2.0,3.0,97,0.00,,,0.00,Wunderground v.1.15,2013-08-01 08:03:00,
2013-08-01 04:08:00,65.9,64.7,29.95,NNW,328,1.0,3.0,96,0.00,,,0.00,Wunderground v.1.15,2013-08-01 08:08:00,
2013-08-01 04:13:00,65.9,64.7,29.95,WNW,296,2.0,2.0,96,0.00,,,0.00,Wunderground v.1.15,2013-08-01 08:13:00,
2013-08-01 04:18:00,66.0,64.8,29.95,WNW,293,2.0,2.0,96,0.00,,,0.00,Wunderground v.1.15,2013-08-01 08:18:00,
2013-08-01 04:23:00,66.1,64.9,29.95,WNW,292,2.0,2.0,96,0.00,,,0.00,Wunderground v.1.15,2013-08-01 08:23:00,
2013-08-01 04:29:00,66.1,64.9,29.95,WNW,292,1.0,2.0,96,0.00,,,0.00,Wunderground v.1.15,2013-08-01 08:29:00,
2013-08-01 04:34:00,66.0,64.8,29.95,WNW,296,1.0,2.0,96,0.00,,,0.00,Wunderground v.1.15,2013-08-01 08:34:00,
2013-08-01 04:40:00,66.0,64.8,29.95,West,281,2.0,2.0,96,0.00,,,0.00,Wunderground v.1.15,2013-08-01 08:40:00,
2013-08-01 04:46:00,66.0,64.8,29.95,West,262,2.0,3.0,96,0.00,,,0.00,Wunderground v.1.15,2013-08-01 08:46:00,
2013-08-01 04:51:00,65.9,64.7,29.95,West,259,2.0,2.0,96,0.00,,,0.00,Wunderground v.1.15,2013-08-01 08:51:00,
2013-08-01 04:56:00,65.9,64.7,29.95,SW,230,4.0,4.0,96,0.00,,,0.00,Wunderground v.1.15,2013-08-01 08:56:00,
2013-08-01 05:02:00,65.8,64.6,29.96,SSW,206,5.0,5.0,96,0.00,,,0.00,Wunderground v.1.15,2013-08-01 09:02:00,
2013-08-01 05:07:00,65.5,64.6,29.96,SW,228,6.0,6.0,97,0.00,,,0.00,Wunderground v.1.15,2013-08-01 09:07:00,
2013-08-01 05:13:00,65.4,64.5,29.96,WSW,240,7.0,8.0,97,0.00,,,0.00,Wunderground v.1.15,2013-08-01 09:13:00,
2013-08-01 05:18:00,65.6,64.7,29.96,WSW,244,8.0,8.0,97,0.00,,,0.00,Wunderground v.1.15,2013-08-01 09:18:00,
2013-08-01 05:24:00,65.7,64.5,29.96,WSW,250,8.0,9.0,96,0.00,,,0.00,Wunderground v.1.15,2013-08-01 09:24:00,
2013-08-01 05:29:00,65.8,64.3,29.96,WSW,249,9.0,10.0,95,0.00,,,0.00,Wunderground v.1.15,2013-08-01 09:29:00,
2013-08-01 05:34:00,66.0,64.2,29.96,WSW,255,7.0,9.0,94,0.00,,,0.00,Wunderground v.1.15,2013-08-01 09:34:00,
2013-08-01 05:39:00,66.1,64.3,29.96,West,262,6.0,9.0,94,0.00,,,0.00,Wunderground v.1.15,2013-08-01 09:39:00,
2013-08-01 05:44:00,66.1,64.3,29.96,West,259,6.0,8.0,94,0.00,,,0.00,Wunderground v.1.15,2013-08-01 09:44:00,
2013-08-01 05:50:00,66.0,64.5,29.96,WSW,249,7.0,7.0,95,0.00,,,0.00,Wunderground v.1.15,2013-08-01 09:50:00,
2013-08-01 05:55:00,65.8,64.6,29.96,WSW,248,7.0,7.0,96,0.00,,,0.00,Wunderground v.1.15,2013-08-01 09:55:00,
2013-08-01 06:01:00,65.8,64.3,29.96,West,262,5.0,7.0,95,0.00,,,0.00,Wunderground v.1.15,2013-08-01 10:01:00,
2013-08-01 06:06:00,65.9,64.1,29.95,West,267,5.0,7.0,94,0.00,,,0.00,Wunderground v.1.15,2013-08-01 10:06:00,
2013-08-01 06:11:00,65.9,64.4,29.96,West,262,5.0,5.0,95,0.00,,,0.00,Wunderground v.1.15,2013-08-01 10:11:00,
2013-08-01 06:17:00,65.9,64.4,29.96,West,262,4.0,5.0,95,0.00,,,0.00,Wunderground v.1.15,2013-08-01 10:17:00,
2013-08-01 06:22:00,65.9,64.4,29.96,West,267,4.0,5.0,95,0.00,,,0.00,Wunderground v.1.15,2013-08-01 10:22:00,
2013-08-01 06:28:00,66.0,64.5,29.95,West,267,3.0,5.0,95,0.00,,,0.00,Wunderground v.1.15,2013-08-01 10:28:00,
2013-08-01 06:33:00,66.0,64.5,29.95,West,266,3.0,4.0,95,0.00,,,0.00,Wunderground v.1.15,2013-08-01 10:33:00,
2013-08-01 06:39:00,66.0,64.5,29.95,West,260,3.0,4.0,95,0.00,,,0.00,Wunderground v.1.15,2013-08-01 10:39:00,
2013-08-01 06:44:00,66.0,64.5,29.96,WSW,254,3.0,3.0,95,0.00,,,0.00,Wunderground v.1.15,2013-08-01 10:44:00,
2013-08-01 06:49:00,66.0,64.5,29.96,WSW,253,4.0,4.0,95,0.00,,,0.00,Wunderground v.1.15,2013-08-01 10:49:00,
2013-08-01 06:54:00,66.0,64.5,29.96,WSW,252,4.0,4.0,95,0.00,,,0.00,Wunderground v.1.15,2013-08-01 10:54:00,
2013-08-01 06:59:00,66.1,64.6,29.96,WSW,248,4.0,4.0,95,0.00,,,0.00,Wunderground v.1.15,2013-08-01 10:59:00,
2013-08-01 07:05:00,66.2,64.7,29.96,WSW,246,5.0,5.0,95,0.00,,,0.00,Wunderground v.1.15,2013-08-01 11:05:00,
2013-08-01 07:11:00,66.2,64.7,29.96,WSW,243,7.0,7.0,95,0.00,,,0.00,Wunderground v.1.15,2013-08-01 11:11:00,
2013-08-01 07:16:00,66.2,64.7,29.96,WSW,239,7.0,7.0,95,0.00,,,0.00,Wunderground v.1.15,2013-08-01 11:16:00,
2013-08-01 07:22:00,66.3,64.8,29.96,WSW,240,7.0,7.0,95,0.00,,,0.00,Wunderground v.1.15,2013-08-01 11:22:00,
2013-08-01 07:27:00,66.2,64.7,29.96,WSW,250,6.0,7.0,95,0.00,,,0.00,Wunderground v.1.15,2013-08-01 11:27:00,
2013-08-01 07:33:00,66.2,64.7,29.96,WSW,258,5.0,7.0,95,0.00,,,0.00,Wunderground v.1.15,2013-08-01 11:33:00,
2013-08-01 07:38:00,66.2,64.7,29.96,West,269,4.0,7.0,95,0.00,,,0.00,Wunderground v.1.15,2013-08-01 11:38:00,
2013-08-01 07:44:00,66.5,65.0,29.96,WNW,284,4.0,5.0,95,0.00,,,0.00,Wunderground v.1.15,2013-08-01 11:44:00,
2013-08-01 07:49:00,66.5,65.0,29.96,West,277,4.0,5.0,95,0.00,,,0.00,Wunderground v.1.15,2013-08-01 11:49:00,
2013-08-01 07:55:00,66.4,64.6,29.96,WNW,286,4.0,4.0,94,0.00,,,0.00,Wunderground v.1.15,2013-08-01 11:55:00,
2013-08-01 08:00:00,66.4,64.9,29.96,WNW,287,4.0,4.0,95,0.00,,,0.00,Wunderground v.1.15,2013-08-01 12:00:00,
2013-08-01 08:05:00,66.4,64.6,29.96,WNW,287,4.0,5.0,94,0.00,,,0.00,Wunderground v.1.15,2013-08-01 12:05:00,
2013-08-01 08:10:00,66.6,64.8,29.96,West,276,4.0,4.0,94,0.00,,,0.00,Wunderground v.1.15,2013-08-01 12:10:00,
2013-08-01 08:15:00,66.8,65.0,29.96,West,277,3.0,4.0,94,0.00,,,0.00,Wunderground v.1.15,2013-08-01 12:15:00,
2013-08-01 08:20:00,66.9,64.8,29.96,West,274,1.0,3.0,93,0.00,,,0.00,Wunderground v.1.15,2013-08-01 12:20:00,
2013-08-01 08:25:00,67.1,65.0,29.96,West,259,2.0,3.0,93,0.00,,,0.00,Wunderground v.1.15,2013-08-01 12:25:00,
2013-08-01 08:30:00,67.3,64.9,29.96,West,262,3.0,4.0,92,0.00,,,0.00,Wunderground v.1.15,2013-08-01 12:30:00,
2013-08-01 08:36:00,67.3,64.9,29.96,WSW,250,4.0,5.0,92,0.00,,,0.00,Wunderground v.1.15,2013-08-01 12:36:00,
2013-08-01 08:42:00,67.5,64.8,29.96,WSW,250,4.0,4.0,91,0.00,,,0.00,Wunderground v.1.15,2013-08-01 12:42:00,
2013-08-01 08:47:00,67.7,65.0,29.96,WSW,246,5.0,5.0,91,0.00,,,0.00,Wunderground v.1.15,2013-08-01 12:47:00,
2013-08-01 08:52:00,67.6,65.2,29.95,SW,232,2.0,5.0,92,0.00,,,0.00,Wunderground v.1.15,2013-08-01 12:52:00,
2013-08-01 08:57:00,68.3,65.9,29.95,SW,224,4.0,5.0,92,0.00,,,0.00,Wunderground v.1.15,2013-08-01 12:57:00,
2013-08-01 09:03:00,68.4,65.4,29.95,SW,224,6.0,6.0,90,0.00,,,0.00,Wunderground v.1.15,2013-08-01 13:03:00,
2013-08-01 09:08:00,68.9,66.2,29.95,SW,221,4.0,6.0,91,0.00,,,0.00,Wunderground v.1.15,2013-08-01 13:08:00,
2013-08-01 09:14:00,69.4,66.0,29.95,South,184,3.0,5.0,89,0.00,,,0.00,Wunderground v.1.15,2013-08-01 13:14:00,
2013-08-01 09:19:00,69.1,65.7,29.95,SW,226,2.0,3.0,89,0.00,,,0.00,Wunderground v.1.15,2013-08-01 13:19:00,
2013-08-01 09:25:00,69.5,66.1,29.95,South,170,5.0,5.0,89,0.00,,,0.00,Wunderground v.1.15,2013-08-01 13:25:00,
2013-08-01 09:30:00,69.7,66.3,29.95,South,188,4.0,5.0,89,0.00,,,0.00,Wunderground v.1.15,2013-08-01 13:30:00,
2013-08-01 09:35:00,69.7,66.0,29.95,SSW,193,6.0,7.0,88,0.00,,,0.00,Wunderground v.1.15,2013-08-01 13:35:00,
2013-08-01 09:41:00,69.8,66.4,29.95,South,177,5.0,5.0,89,0.00,,,0.00,Wunderground v.1.15,2013-08-01 13:41:00,
2013-08-01 09:46:00,69.6,66.2,29.94,South,177,7.0,7.0,89,0.00,,,0.00,Wunderground v.1.15,2013-08-01 13:46:00,
2013-08-01 09:52:00,69.2,66.5,29.94,South,184,6.0,7.0,91,0.00,,,0.00,Wunderground v.1.15,2013-08-01 13:52:00,
2013-08-01 09:57:00,69.2,66.8,29.94,SW,219,5.0,7.0,92,0.00,,,0.00,Wunderground v.1.15,2013-08-01 13:57:00,
2013-08-01 10:02:00,69.3,66.2,29.94,South,170,7.0,8.0,90,0.00,,,0.00,Wunderground v.1.15,2013-08-01 14:02:00,
2013-08-01 10:07:00,69.3,66.6,29.94,South,176,5.0,8.0,91,0.00,,,0.00,Wunderground v.1.15,2013-08-01 14:07:00,
2013-08-01 10:13:00,69.7,66.6,29.94,SSE,166,6.0,6.0,90,0.00,,,0.00,Wunderground v.1.15,2013-08-01 14:13:00,
2013-08-01 10:19:00,69.6,66.5,29.94,South,177,9.0,10.0,90,0.00,,,0.00,Wunderground v.1.15,2013-08-01 14:19:00,
2013-08-01 10:25:00,68.9,66.2,29.94,SSE,161,4.0,10.0,91,0.00,,,0.00,Wunderground v.1.15,2013-08-01 14:25:00,
2013-08-01 10:30:00,69.3,66.9,29.94,South,179,9.0,9.0,92,0.00,,,0.00,Wunderground v.1.15,2013-08-01 14:30:00,
2013-08-01 10:36:00,69.4,67.0,29.94,South,174,9.0,10.0,92,0.00,,,0.00,Wunderground v.1.15,2013-08-01 14:36:00,
2013-08-01 10:41:00,69.3,66.6,29.94,South,180,9.0,11.0,91,0.00,,,0.00,Wunderground v.1.15,2013-08-01 14:41:00,
2013-08-01 10:47:00,69.4,67.0,29.94,SSW,194,7.0,11.0,92,0.00,,,0.00,Wunderground v.1.15,2013-08-01 14:47:00,
2013-08-01 10:54:00,69.8,67.1,29.93,SSE,167,8.0,10.0,91,0.00,,,0.00,Wunderground v.1.15,2013-08-01 14:54:00,
2013-08-01 10:59:00,69.9,66.8,29.93,South,186,9.0,11.0,90,0.00,,,0.00,Wunderground v.1.15,2013-08-01 14:59:00,
2013-08-01 11:04:00,69.7,66.6,29.93,South,186,8.0,11.0,90,0.00,,,0.00,Wunderground v.1.15,2013-08-01 15:04:00,
2013-08-01 11:11:00,69.7,67.0,29.93,South,180,10.0,12.0,91,0.00,,,0.00,Wunderground v.1.15,2013-08-01 15:11:00,
2013-08-01 11:17:00,69.7,67.0,29.93,SSW,194,12.0,12.0,91,0.00,,,0.00,Wunderground v.1.15,2013-08-01 15:17:00,
2013-08-01 11:22:00,69.6,66.5,29.92,SSW,207,9.0,12.0,90,0.00,,,0.00,Wunderground v.1.15,2013-08-01 15:22:00,
2013-08-01 11:28:00,69.4,66.3,29.92,SSW,205,11.0,14.0,90,0.00,,,0.00,Wunderground v.1.15,2013-08-01 15:28:00,
2013-08-01 11:33:00,69.5,66.8,29.92,SSW,204,12.0,13.0,91,0.00,,,0.00,Wunderground v.1.15,2013-08-01 15:33:00,
2013-08-01 11:38:00,69.4,66.7,29.92,SSW,211,13.0,14.0,91,0.00,,,0.00,Wunderground v.1.15,2013-08-01 15:38:00,
2013-08-01 11:43:00,69.4,67.0,29.92,SSW,205,14.0,15.0,92,0.00,,,0.00,Wunderground v.1.15,2013-08-01 15:43:00,
2013-08-01 11:48:00,69.4,67.0,29.92,SSW,200,14.0,15.0,92,0.00,,,0.00,Wunderground v.1.15,2013-08-01 15:48:00,
2013-08-01 11:54:00,69.4,66.7,29.91,SSW,197,15.0,15.0,91,0.00,,,0.00,Wunderground v.1.15,2013-08-01 15:54:00,
2013-08-01 12:00:00,69.2,66.8,29.91,SSW,201,14.0,14.0,92,0.00,,,0.00,Wunderground v.1.15,2013-08-01 16:00:00,
2013-08-01 12:05:00,69.2,66.5,29.91,SSW,210,14.0,17.0,91,0.00,,,0.00,Wunderground v.1.15,2013-08-01 16:05:00,
2013-08-01 12:10:00,69.5,66.4,29.91,SSW,195,13.0,15.0,90,0.00,,,0.00,Wunderground v.1.15,2013-08-01 16:10:00,
2013-08-01 12:15:00,69.6,66.5,29.91,South,191,11.0,16.0,90,0.00,,,0.00,Wunderground v.1.15,2013-08-01 16:15:00,
2013-08-01 12:21:00,69.7,66.6,29.91,SSW,203,11.0,16.0,90,0.00,,,0.00,Wunderground v.1.15,2013-08-01 16:21:00,
2013-08-01 12:27:00,69.9,66.2,29.91,South,191,15.0,16.0,88,0.00,,,0.00,Wunderground v.1.15,2013-08-01 16:27:00,
2013-08-01 12:32:00,69.9,66.5,29.91,SW,219,14.0,16.0,89,0.00,,,0.00,Wunderground v.1.15,2013-08-01 16:32:00,
2013-08-01 12:37:00,69.8,66.4,29.91,South,184,13.0,16.0,89,0.00,,,0.00,Wunderground v.1.15,2013-08-01 16:37:00,
2013-08-01 12:43:00,69.8,66.4,29.91,South,183,18.0,18.0,89,0.00,,,0.00,Wunderground v.1.15,2013-08-01 16:43:00,
2013-08-01 12:50:00,70.0,66.9,29.90,SSW,198,13.0,16.0,90,0.00,,,0.00,Wunderground v.1.15,2013-08-01 16:50:00,
2013-08-01 12:56:00,69.8,66.7,29.90,South,180,17.0,18.0,90,0.00,,,0.00,Wunderground v.1.15,2013-08-01 16:56:00,
2013-08-01 13:02:00,69.8,66.7,29.90,South,191,16.0,17.0,90,0.00,,,0.00,Wunderground v.1.15,2013-08-01 17:02:00,
2013-08-01 13:07:00,69.7,67.0,29.90,South,190,11.0,18.0,91,0.00,,,0.00,Wunderground v.1.15,2013-08-01 17:07:00,
2013-08-01 13:12:00,70.1,67.3,29.90,SSW,200,14.0,18.0,91,0.00,,,0.00,Wunderground v.1.15,2013-08-01 17:12:00,
2013-08-01 13:17:00,69.9,67.2,29.90,SSW,195,13.0,18.0,91,0.00,,,0.00,Wunderground v.1.15,2013-08-01 17:17:00,
2013-08-01 13:22:00,69.6,66.9,29.90,SSW,193,14.0,17.0,91,0.00,,,0.00,Wunderground v.1.15,2013-08-01 17:22:00,
2013-08-01 13:28:00,69.9,67.2,29.89,SSW,193,14.0,18.0,91,0.00,,,0.00,Wunderground v.1.15,2013-08-01 17:28:00,
2013-08-01 13:33:00,69.9,66.8,29.89,SSW,210,15.0,17.0,90,0.00,,,0.00,Wunderground v.1.15,2013-08-01 17:33:00,
2013-08-01 13:38:00,69.9,66.8,29.89,SSW,201,13.0,17.0,90,0.00,,,0.00,Wunderground v.1.15,2013-08-01 17:38:00,
2013-08-01 13:43:00,70.1,66.7,29.89,SSW,207,18.0,18.0,89,0.00,,,0.00,Wunderground v.1.15,2013-08-01 17:43:00,
2013-08-01 13:48:00,69.9,66.2,29.89,SSW,197,18.0,20.0,88,0.00,,,0.00,Wunderground v.1.15,2013-08-01 17:48:00,
2013-08-01 13:53:00,69.9,66.2,29.88,SSW,204,19.0,20.0,88,0.00,,,0.00,Wunderground v.1.15,2013-08-01 17:53:00,
2013-08-01 13:59:00,69.9,66.2,29.89,South,176,15.0,21.0,88,0.00,,,0.00,Wunderground v.1.15,2013-08-01 17:59:00,
2013-08-01 14:04:00,70.0,66.3,29.88,SSW,195,19.0,19.0,88,0.00,,,0.00,Wunderground v.1.15,2013-08-01 18:04:00,
2013-08-01 14:09:00,70.2,66.5,29.88,South,191,16.0,16.0,88,0.00,,,0.00,Wunderground v.1.15,2013-08-01 18:09:00,
2013-08-01 14:14:00,70.3,66.6,29.88,SSW,201,16.0,19.0,88,0.00,,,0.00,Wunderground v.1.15,2013-08-01 18:14:00,
2013-08-01 14:19:00,70.3,66.9,29.88,SSW,194,18.0,18.0,89,0.00,,,0.00,Wunderground v.1.15,2013-08-01 18:19:00,
2013-08-01 14:25:00,70.0,66.9,29.88,SSW,200,16.0,19.0,90,0.00,,,0.00,Wunderground v.1.15,2013-08-01 18:25:00,
2013-08-01 14:30:00,70.1,67.0,29.88,SSW,197,18.0,20.0,90,0.00,,,0.00,Wunderground v.1.15,2013-08-01 18:30:00,
2013-08-01 14:35:00,70.0,66.9,29.88,South,183,16.0,20.0,90,0.00,,,0.00,Wunderground v.1.15,2013-08-01 18:35:00,
2013-08-01 14:41:00,70.1,67.0,29.88,SSW,203,16.0,18.0,90,0.00,,,0.00,Wunderground v.1.15,2013-08-01 18:41:00,
2013-08-01 14:46:00,69.7,66.6,29.88,SSW,201,17.0,21.0,90,0.00,,,0.00,Wunderground v.1.15,2013-08-01 18:46:00,
2013-08-01 14:51:00,69.3,66.2,29.87,SSW,195,18.0,19.0,90,0.00,,,0.00,Wunderground v.1.15,2013-08-01 18:51:00,
2013-08-01 14:57:00,69.3,66.6,29.87,South,183,17.0,19.0,91,0.00,,,0.00,Wunderground v.1.15,2013-08-01 18:57:00,
2013-08-01 15:02:00,69.3,66.2,29.87,South,191,16.0,19.0,90,0.00,,,0.00,Wunderground v.1.15,2013-08-01 19:02:00,
2013-08-01 15:07:00,69.2,66.1,29.87,South,188,17.0,19.0,90,0.00,,,0.00,Wunderground v.1.15,2013-08-01 19:07:00,
2013-08-01 15:12:00,69.3,66.2,29.87,SSW,197,18.0,20.0,90,0.00,,,0.00,Wunderground v.1.15,2013-08-01 19:12:00,
2013-08-01 15:17:00,69.4,65.7,29.86,SSW,201,18.0,23.0,88,0.00,,,0.00,Wunderground v.1.15,2013-08-01 19:17:00,
2013-08-01 15:22:00,69.5,65.8,29.86,SSW,195,19.0,19.0,88,0.00,,,0.00,Wunderground v.1.15,2013-08-01 19:22:00,
2013-08-01 15:28:00,69.6,66.2,29.86,SSW,200,16.0,20.0,89,0.00,,,0.00,Wunderground v.1.15,2013-08-01 19:28:00,
2013-08-01 15:33:00,69.6,65.9,29.86,South,187,17.0,19.0,88,0.00,,,0.00,Wunderground v.1.15,2013-08-01 19:33:00,
2013-08-01 15:38:00,69.6,66.2,29.86,SSW,201,18.0,19.0,89,0.00,,,0.00,Wunderground v.1.15,2013-08-01 19:38:00,
2013-08-01 15:44:00,69.4,66.0,29.86,South,177,13.0,20.0,89,0.00,,,0.00,Wunderground v.1.15,2013-08-01 19:44:00,
2013-08-01 15:49:00,69.7,66.3,29.86,South,190,18.0,20.0,89,0.00,,,0.00,Wunderground v.1.15,2013-08-01 19:49:00,
2013-08-01 15:54:00,69.7,66.0,29.86,SSW,200,17.0,21.0,88,0.00,,,0.00,Wunderground v.1.15,2013-08-01 19:54:00,
2013-08-01 15:59:00,69.9,66.5,29.86,SSW,194,16.0,21.0,89,0.00,,,0.00,Wunderground v.1.15,2013-08-01 19:59:00,
2013-08-01 16:04:00,69.8,66.1,29.86,SSW,198,18.0,21.0,88,0.00,,,0.00,Wunderground v.1.15,2013-08-01 20:04:00,
2013-08-01 16:09:00,69.8,66.1,29.85,South,184,17.0,22.0,88,0.00,,,0.00,Wunderground v.1.15,2013-08-01 20:09:00,
2013-08-01 16:15:00,70.0,66.3,29.86,South,184,19.0,21.0,88,0.00,,,0.00,Wunderground v.1.15,2013-08-01 20:15:00,
2013-08-01 16:20:00,69.7,66.0,29.86,SSW,203,18.0,20.0,88,0.00,,,0.00,Wunderground v.1.15,2013-08-01 20:20:00,
2013-08-01 16:25:00,69.5,66.1,29.86,South,187,17.0,21.0,89,0.00,,,0.00,Wunderground v.1.15,2013-08-01 20:25:00,
2013-08-01 16:30:00,69.4,66.0,29.86,South,187,17.0,19.0,89,0.00,,,0.00,Wunderground v.1.15,2013-08-01 20:30:00,
2013-08-01 16:35:00,69.3,65.9,29.86,SSW,197,18.0,22.0,89,0.00,,,0.00,Wunderground v.1.15,2013-08-01 20:35:00,
2013-08-01 16:41:00,69.2,65.8,29.86,SSW,210,22.0,23.0,89,0.00,,,0.00,Wunderground v.1.15,2013-08-01 20:41:00,
2013-08-01 16:42:00,69.2,65.8,29.86,SSW,210,22.0,23.0,89,0.00,,,0.00,Wunderground v.1.15,2013-08-01 20:42:00,
2013-08-01 16:47:00,69.1,65.7,29.86,South,176,19.0,23.0,89,0.00,,,0.00,Wunderground v.1.15,2013-08-01 20:47:00,
2013-08-01 16:52:00,69.1,65.7,29.85,SSW,205,16.0,23.0,89,0.00,,,0.00,Wunderground v.1.15,2013-08-01 20:52:00,
2013-08-01 16:58:00,69.1,65.7,29.86,South,184,22.0,24.0,89,0.00,,,0.00,Wunderground v.1.15,2013-08-01 20:58:00,
2013-08-01 17:03:00,69.1,65.7,29.86,SSW,198,21.0,23.0,89,0.00,,,0.00,Wunderground v.1.15,2013-08-01 21:03:00,
2013-08-01 17:08:00,69.1,65.7,29.85,SSW,207,22.0,23.0,89,0.00,,,0.00,Wunderground v.1.15,2013-08-01 21:08:00,
2013-08-01 17:13:00,69.1,65.7,29.85,South,186,22.0,23.0,89,0.00,,,0.00,Wunderground v.1.15,2013-08-01 21:13:00,
2013-08-01 17:18:00,69.0,65.9,29.85,SSW,198,19.0,23.0,90,0.00,,,0.00,Wunderground v.1.15,2013-08-01 21:18:00,
2013-08-01 17:23:00,69.0,65.9,29.85,SSW,197,22.0,23.0,90,0.00,,,0.00,Wunderground v.1.15,2013-08-01 21:23:00,
2013-08-01 17:29:00,68.9,65.8,29.85,South,179,19.0,23.0,90,0.00,,,0.00,Wunderground v.1.15,2013-08-01 21:29:00,
2013-08-01 17:34:00,68.9,65.8,29.85,SSW,204,18.0,22.0,90,0.00,,,0.00,Wunderground v.1.15,2013-08-01 21:34:00,
2013-08-01 17:39:00,68.9,65.8,29.85,South,190,19.0,22.0,90,0.00,,,0.00,Wunderground v.1.15,2013-08-01 21:39:00,
2013-08-01 17:44:00,68.9,65.8,29.85,SSW,198,21.0,23.0,90,0.00,,,0.00,Wunderground v.1.15,2013-08-01 21:44:00,
2013-08-01 17:49:00,69.0,65.6,29.85,South,187,18.0,24.0,89,0.00,,,0.00,Wunderground v.1.15,2013-08-01 21:49:00,
2013-08-01 17:54:00,69.0,65.6,29.84,South,174,21.0,22.0,89,0.00,,,0.00,Wunderground v.1.15,2013-08-01 21:54:00,
2013-08-01 17:59:00,69.0,65.6,29.84,South,179,23.0,23.0,89,0.00,,,0.00,Wunderground v.1.15,2013-08-01 21:59:00,
2013-08-01 18:04:00,69.0,65.6,29.84,South,173,19.0,22.0,89,0.00,,,0.00,Wunderground v.1.15,2013-08-01 22:04:00,
2013-08-01 18:09:00,68.9,65.8,29.84,SSW,198,18.0,22.0,90,0.00,,,0.00,Wunderground v.1.15,2013-08-01 22:09:00,
2013-08-01 18:15:00,68.8,65.7,29.84,SSW,203,20.0,21.0,90,0.00,,,0.00,Wunderground v.1.15,2013-08-01 22:15:00,
2013-08-01 18:20:00,68.9,65.8,29.84,SSW,201,21.0,23.0,90,0.00,,,0.00,Wunderground v.1.15,2013-08-01 22:20:00,
2013-08-01 18:25:00,68.9,65.8,29.84,South,190,18.0,23.0,90,0.00,,,0.00,Wunderground v.1.15,2013-08-01 22:25:00,
2013-08-01 18:30:00,68.9,65.8,29.84,SSW,207,21.0,24.0,90,0.00,,,0.00,Wunderground v.1.15,2013-08-01 22:30:00,
2013-08-01 18:35:00,69.0,65.9,29.84,SSW,197,20.0,24.0,90,0.00,,,0.00,Wunderground v.1.15,2013-08-01 22:35:00,
2013-08-01 18:40:00,69.0,65.9,29.84,SW,226,24.0,24.0,90,0.00,,,0.00,Wunderground v.1.15,2013-08-01 22:40:00,
2013-08-01 18:45:00,69.2,66.1,29.84,WSW,245,24.0,28.0,90,0.00,,,0.00,Wunderground v.1.15,2013-08-01 22:45:00,
2013-08-01 18:50:00,69.4,66.0,29.84,SW,232,23.0,25.0,89,0.00,,,0.00,Wunderground v.1.15,2013-08-01 22:50:00,
2013-08-01 18:55:00,69.6,66.2,29.85,SW,223,23.0,27.0,89,0.00,,,0.00,Wunderground v.1.15,2013-08-01 22:55:00,
2013-08-01 19:01:00,69.8,66.1,29.84,SW,235,22.0,23.0,88,0.00,,,0.00,Wunderground v.1.15,2013-08-01 23:01:00,
2013-08-01 19:06:00,70.3,65.9,29.84,SW,231,21.0,24.0,86,0.00,,,0.00,Wunderground v.1.15,2013-08-01 23:06:00,
2013-08-01 19:11:00,70.3,65.9,29.84,SW,235,22.0,24.0,86,0.00,,,0.00,Wunderground v.1.15,2013-08-01 23:11:00,
2013-08-01 19:17:00,70.3,65.9,29.84,South,191,15.0,24.0,86,0.00,,,0.00,Wunderground v.1.15,2013-08-01 23:17:00,
2013-08-01 19:22:00,70.2,65.8,29.84,WNW,291,17.0,20.0,86,0.00,,,0.00,Wunderground v.1.15,2013-08-01 23:22:00,
2013-08-01 19:27:00,69.9,65.5,29.85,WSW,250,19.0,21.0,86,0.00,,,0.00,Wunderground v.1.15,2013-08-01 23:27:00,
2013-08-01 19:32:00,69.6,65.6,29.85,WSW,245,16.0,18.0,87,0.00,,,0.00,Wunderground v.1.15,2013-08-01 23:32:00,
2013-08-01 19:38:00,69.4,65.4,29.85,West,273,14.0,18.0,87,0.00,,,0.00,Wunderground v.1.15,2013-08-01 23:38:00,
2013-08-01 19:43:00,70.3,65.6,29.86,WNW,284,12.0,18.0,85,0.00,,,0.00,Wunderground v.1.15,2013-08-01 23:43:00,
2013-08-01 19:48:00,70.4,66.0,29.86,WNW,287,14.0,18.0,86,0.00,,,0.00,Wunderground v.1.15,2013-08-01 23:48:00,
2013-08-01 19:53:00,70.0,65.6,29.86,WNW,300,18.0,18.0,86,0.00,,,0.00,Wunderground v.1.15,2013-08-01 23:53:00,
2013-08-01 19:58:00,69.8,65.4,29.86,WNW,291,17.0,18.0,86,0.00,,,0.00,Wunderground v.1.15,2013-08-01 23:58:00,
2013-08-01 20:04:00,69.7,65.3,29.86,WNW,288,14.0,17.0,86,0.00,,,0.00,Wunderground v.1.15,2013-08-02 00:04:00,
2013-08-01 20:09:00,69.5,65.1,29.86,WNW,289,14.0,17.0,86,0.00,,,0.00,Wunderground v.1.15,2013-08-02 00:09:00,
2013-08-01 20:14:00,69.3,65.3,29.86,WNW,295,12.0,15.0,87,0.00,,,0.00,Wunderground v.1.15,2013-08-02 00:14:00,
2013-08-01 20:19:00,69.2,65.2,29.86,WNW,293,10.0,15.0,87,0.00,,,0.00,Wunderground v.1.15,2013-08-02 00:19:00,
2013-08-01 20:24:00,69.1,65.1,29.86,WNW,288,13.0,13.0,87,0.00,,,0.00,Wunderground v.1.15,2013-08-02 00:24:00,
2013-08-01 20:29:00,69.3,65.3,29.87,WNW,285,13.0,13.0,87,0.00,,,0.00,Wunderground v.1.15,2013-08-02 00:29:00,
2013-08-01 20:35:00,69.3,65.3,29.86,WNW,286,13.0,13.0,87,0.00,,,0.00,Wunderground v.1.15,2013-08-02 00:35:00,
2013-08-01 20:40:00,69.4,65.4,29.86,WNW,285,13.0,13.0,87,0.00,,,0.00,Wunderground v.1.15,2013-08-02 00:40:00,
2013-08-01 20:45:00,69.4,65.0,29.86,WNW,283,12.0,13.0,86,0.00,,,0.00,Wunderground v.1.15,2013-08-02 00:45:00,
2013-08-01 20:50:00,69.6,65.2,29.86,WNW,285,9.0,12.0,86,0.00,,,0.00,Wunderground v.1.15,2013-08-02 00:50:00,
2013-08-01 20:55:00,69.5,64.8,29.86,NW,321,19.0,19.0,85,0.00,,,0.00,Wunderground v.1.15,2013-08-02 00:55:00,
2013-08-01 21:00:00,69.9,64.5,29.86,WNW,291,14.0,16.0,83,0.00,,,0.00,Wunderground v.1.15,2013-08-02 01:00:00,
2013-08-01 21:06:00,69.9,64.8,29.86,WNW,285,12.0,16.0,84,0.00,,,0.00,Wunderground v.1.15,2013-08-02 01:06:00,
2013-08-01 21:11:00,69.8,64.7,29.86,WNW,284,14.0,14.0,84,0.00,,,0.00,Wunderground v.1.15,2013-08-02 01:11:00,
2013-08-01 21:16:00,69.6,64.9,29.86,WNW,288,12.0,14.0,85,0.00,,,0.00,Wunderground v.1.15,2013-08-02 01:16:00,
2013-08-01 21:22:00,69.4,65.0,29.86,WNW,286,13.0,13.0,86,0.00,,,0.00,Wunderground v.1.15,2013-08-02 01:22:00,
2013-08-01 21:27:00,69.4,64.7,29.86,WNW,285,13.0,13.0,85,0.00,,,0.00,Wunderground v.1.15,2013-08-02 01:27:00,
2013-08-01 21:32:00,69.5,64.8,29.86,WNW,285,11.0,13.0,85,0.00,,,0.00,Wunderground v.1.15,2013-08-02 01:32:00,
2013-08-01 21:38:00,69.4,64.7,29.86,West,281,11.0,13.0,85,0.00,,,0.00,Wunderground v.1.15,2013-08-02 01:38:00,
2013-08-01 21:43:00,69.3,64.6,29.86,West,281,9.0,11.0,85,0.00,,,0.00,Wunderground v.1.15,2013-08-02 01:43:00,
2013-08-01 21:48:00,69.3,64.9,29.86,West,278,8.0,11.0,86,0.00,,,0.00,Wunderground v.1.15,2013-08-02 01:48:00,
2013-08-01 21:53:00,69.3,64.6,29.86,West,278,8.0,9.0,85,0.00,,,0.00,Wunderground v.1.15,2013-08-02 01:53:00,
2013-08-01 21:58:00,69.1,65.1,29.86,WSW,255,5.0,9.0,87,0.00,,,0.00,Wunderground v.1.15,2013-08-02 01:58:00,
2013-08-01 22:03:00,69.1,64.7,29.86,WSW,250,6.0,7.0,86,0.00,,,0.00,Wunderground v.1.15,2013-08-02 02:03:00,
2013-08-01 22:08:00,68.9,64.9,29.86,WSW,248,7.0,7.0,87,0.00,,,0.00,Wunderground v.1.15,2013-08-02 02:08:00,
2013-08-01 22:13:00,68.8,65.1,29.85,WSW,243,6.0,7.0,88,0.00,,,0.00,Wunderground v.1.15,2013-08-02 02:13:00,
2013-08-01 22:18:00,69.0,65.0,29.85,WSW,249,6.0,7.0,87,0.00,,,0.00,Wunderground v.1.15,2013-08-02 02:18:00,
2013-08-01 22:24:00,69.1,65.1,29.85,WSW,254,8.0,8.0,87,0.00,,,0.00,Wunderground v.1.15,2013-08-02 02:24:00,
2013-08-01 22:29:00,69.0,65.3,29.85,WSW,243,7.0,8.0,88,0.00,,,0.00,Wunderground v.1.15,2013-08-02 02:29:00,
2013-08-01 22:34:00,68.8,65.4,29.85,WSW,245,9.0,9.0,89,0.00,,,0.00,Wunderground v.1.15,2013-08-02 02:34:00,
2013-08-01 22:39:00,68.7,65.0,29.85,WSW,249,11.0,13.0,88,0.00,,,0.00,Wunderground v.1.15,2013-08-02 02:39:00,
2013-08-01 22:44:00,68.8,64.1,29.85,WSW,240,12.0,13.0,85,0.00,,,0.00,Wunderground v.1.15,2013-08-02 02:44:00,
2013-08-01 22:49:00,69.3,62.1,29.84,SSW,210,11.0,12.0,78,0.00,,,0.00,Wunderground v.1.15,2013-08-02 02:49:00,
2013-08-01 22:54:00,69.6,62.8,29.84,SW,226,10.0,12.0,79,0.00,,,0.00,Wunderground v.1.15,2013-08-02 02:54:00,
2013-08-01 22:59:00,69.7,62.5,29.84,WSW,242,9.0,12.0,78,0.00,,,0.00,Wunderground v.1.15,2013-08-02 02:59:00,
2013-08-01 23:05:00,70.3,60.4,29.84,SW,236,10.0,10.0,71,0.00,,,0.00,Wunderground v.1.15,2013-08-02 03:05:00,
2013-08-01 23:10:00,70.5,61.0,29.84,WSW,240,9.0,9.0,72,0.00,,,0.00,Wunderground v.1.15,2013-08-02 03:10:00,
2013-08-01 23:15:00,70.4,60.5,29.84,WSW,242,10.0,11.0,71,0.00,,,0.00,Wunderground v.1.15,2013-08-02 03:15:00,
2013-08-01 23:20:00,70.3,61.2,29.84,WSW,249,9.0,10.0,73,0.00,,,0.00,Wunderground v.1.15,2013-08-02 03:20:00,
2013-08-01 23:25:00,70.0,61.7,29.84,West,264,9.0,10.0,75,0.00,,,0.00,Wunderground v.1.15,2013-08-02 03:25:00,
2013-08-01 23:30:00,69.5,64.1,29.84,West,277,10.0,10.0,83,0.00,,,0.00,Wunderground v.1.15,2013-08-02 03:30:00,
2013-08-01 23:35:00,69.2,63.1,29.84,West,273,10.0,11.0,81,0.00,,,0.00,Wunderground v.1.15,2013-08-02 03:35:00,
2013-08-01 23:40:00,69.3,63.9,29.84,West,277,9.0,11.0,83,0.00,,,0.00,Wunderground v.1.15,2013-08-02 03:40:00,
2013-08-01 23:45:00,69.2,63.8,29.83,West,267,8.0,11.0,83,0.00,,,0.00,Wunderground v.1.15,2013-08-02 03:45:00,
2013-08-01 23:51:00,69.1,64.1,29.83,WSW,248,6.0,8.0,84,0.00,,,0.00,Wunderground v.1.15,2013-08-02 03:51:00,
2013-08-01 23:57:00,68.9,64.2,29.83,SW,231,7.0,8.0,85,0.00,,,0.00,Wunderground v.1.15,2013-08-02 03:57:00,